WA1DLZ Weather Reports


time (UTC)temp
C
wind
direction
speed
KPH
gust
KPH
rain 1hr
cm
rain 24hr
cm
rain mn
cm
humidity
%
barometer
mb
20260506051004 12 192 0.0 0.0 0.00 0.08 0.00 93 1006.4
20260506050504 12 192 0.0 4.8 0.00 0.08 0.00 93 1006.5
20260506045004 12 197 1.6 8.0 0.00 0.08 0.00 92 1006.3
20260506044504 12 213 0.0 3.2 0.00 0.08 0.00 92 1006.2
20260506044004 13 213 0.0 4.8 0.00 0.08 0.00 92 1006.4
20260506043004 13 213 0.0 0.0 0.00 0.08 0.00 93 1006.3
20260506042504 13 213 0.0 0.0 0.00 0.08 0.00 93 1006.1
20260506042004 12 213 0.0 8.0 0.00 0.08 0.00 93 1006.2
20260506041504 12 213 1.6 12.9 0.00 0.08 0.00 94 1006.2
20260506041005 12 200 4.8 9.7 0.00 0.08 0.00 94 1006.1
20260506040505 12 184 4.8 11.3 0.00 0.08 0.00 94 1006.0
20260506040004 13 179 3.2 11.3 0.00 0.08 0.00 94 1005.9
20260506035504 13 198 1.6 9.7 0.00 0.08 0.08 94 1005.9
20260506035004 13 194 1.6 8.0 0.00 0.08 0.08 94 1005.7
20260506034003 13 183 3.2 9.7 0.00 0.08 0.08 94 1005.8
20260506033503 13 181 3.2 11.3 0.00 0.08 0.08 94 1005.7
20260506033003 13 190 0.0 4.8 0.00 0.08 0.08 94 1005.9
20260506032503 13 184 1.6 4.8 0.00 0.08 0.08 95 1006.0
20260506032003 13 169 1.6 8.0 0.00 0.08 0.08 95 1005.9
20260506031503 13 198 0.0 3.2 0.00 0.08 0.08 96 1006.1
20260506031003 13 198 1.6 8.0 0.00 0.08 0.08 96 1006.0
20260506030503 14 198 1.6 4.8 0.00 0.08 0.08 95 1006.0
20260506030003 14 198 1.6 4.8 0.00 0.08 0.08 95 1006.1
20260506025503 14 199 0.0 8.0 0.00 0.08 0.08 95 1006.2
20260506025002 14 199 3.2 11.3 0.00 0.08 0.08 95 1006.4
20260506024503 14 202 1.6 4.8 0.00 0.08 0.08 95 1006.3
20260506024002 14 202 0.0 3.2 0.00 0.08 0.08 95 1006.3
20260506023502 14 202 1.6 9.7 0.00 0.08 0.08 95 1006.3
20260506023003 14 225 1.6 4.8 0.00 0.08 0.08 96 1006.3
20260506022503 14 178 1.6 8.0 0.00 0.08 0.08 96 1006.2
20260506022003 14 172 4.8 12.9 0.00 0.08 0.08 96 1006.2
20260506021503 14 190 1.6 4.8 0.00 0.08 0.08 96 1006.3
20260506021003 14 216 4.8 14.5 0.00 0.08 0.08 96 1006.4
20260506020503 14 181 4.8 16.1 0.00 0.08 0.08 96 1006.4
20260506020003 14 193 6.4 12.9 0.00 0.08 0.08 97 1006.6
20260506015503 14 199 6.4 14.5 0.00 0.08 0.08 97 1006.4
20260506015003 14 201 4.8 14.5 0.00 0.08 0.08 97 1006.3
20260506014003 14 223 0.0 0.0 0.00 0.08 0.08 97 1006.3
20260506013503 14 223 0.0 0.0 0.00 0.08 0.08 97 1006.0
20260506013003 14 223 0.0 0.0 0.00 0.08 0.08 96 1005.8
20260506012503 14 223 0.0 0.0 0.00 0.08 0.08 96 1005.7
20260506012003 14 223 0.0 0.0 0.00 0.08 0.08 96 1005.6
20260506011503 14 223 0.0 0.0 0.00 0.08 0.08 96 1005.6
20260506011003 14 223 0.0 0.0 0.00 0.08 0.08 96 1005.5
20260506010503 14 223 0.0 0.0 0.00 0.08 0.08 96 1005.5
20260506010002 14 223 0.0 0.0 0.00 0.08 0.08 96 1005.5
20260506005503 14 223 0.0 0.0 0.00 0.08 0.08 96 1005.5
20260506005003 14 223 0.0 0.0 0.00 0.08 0.08 96 1005.4
20260506004503 14 223 0.0 0.0 0.00 0.08 0.08 95 1005.3
20260506004003 14 223 0.0 0.0 0.00 0.08 0.08 95 1005.4
20260506003503 14 223 0.0 0.0 0.03 0.08 0.08 95 1005.3
20260506003002 15 223 0.0 0.0 0.03 0.08 0.08 95 1005.1
20260506002502 15 223 0.0 0.0 0.03 0.08 0.08 94 1004.9
20260506002003 15 223 0.0 0.0 0.05 0.08 0.08 94 1005.0
20260506001003 15 223 0.0 0.0 0.05 0.08 0.08 94 1004.9
20260506000003 15 223 0.0 0.0 0.05 0.08 0.08 94 1004.9
20260505235003 15 223 0.0 0.0 0.05 0.08 0.08 93 1004.8
20260505234503 15 223 0.0 0.0 0.05 0.08 0.08 92 1004.7
20260505234003 15 223 0.0 12.9 0.05 0.08 0.08 91 1004.8
20260505233502 16 242 8.0 19.3 0.03 0.05 0.05 90 1005.6
20260505232502 16 234 1.6 9.7 0.05 0.05 0.05 90 1005.4
20260505232003 16 248 0.0 1.6 0.03 0.03 0.03 90 1005.2
20260505231503 16 253 0.0 0.0 0.03 0.03 0.03 90 1005.1
20260505230503 16 253 0.0 0.0 0.03 0.03 0.03 88 1005.0
20260505230003 16 253 0.0 0.0 0.03 0.03 0.03 88 1004.9
20260505225003 17 253 0.0 0.0 0.03 0.03 0.03 86 1004.8
20260505224003 17 253 3.2 14.5 0.03 0.03 0.03 81 1004.8
20260505223503 18 213 1.6 14.5 0.03 0.03 0.03 77 1004.9
20260505223003 20 212 1.6 16.1 0.00 0.00 0.00 69 1004.8
20260505222503 20 213 0.0 9.7 0.00 0.00 0.00 59 1004.5
20260505222003 20 214 0.0 22.5 0.00 0.00 0.00 60 1002.5
20260505221503 20 211 3.2 19.3 0.00 0.00 0.00 59 1002.0
20260505221003 20 167 4.8 19.3 0.00 0.00 0.00 59 1001.8
20260505220503 20 165 9.7 22.5 0.00 0.00 0.00 57 1001.8
20260505220003 21 160 4.8 19.3 0.00 0.00 0.00 57 1001.7
20260505215503 21 162 8.0 20.9 0.00 0.00 0.00 56 1001.6
20260505215003 22 221 3.2 20.9 0.00 0.00 0.00 54 1001.5
20260505214503 22 185 6.4 20.9 0.00 0.00 0.00 54 1001.3
20260505214003 22 226 4.8 20.9 0.00 0.00 0.00 55 1001.5
20260505213503 22 172 9.7 22.5 0.00 0.00 0.00 53 1001.3
20260505212503 22 199 3.2 19.3 0.00 0.00 0.00 54 1001.5
20260505212003 22 207 8.0 22.5 0.00 0.00 0.00 53 1001.4
20260505211003 22 190 11.3 25.7 0.00 0.00 0.00 53 1001.5
20260505210503 22 194 9.7 32.2 0.00 0.00 0.00 52 1001.4
20260505210003 22 192 8.0 35.4 0.00 0.00 0.00 52 1001.5
20260505205503 23 199 12.9 27.4 0.00 0.00 0.00 51 1001.3
20260505205003 23 198 11.3 32.2 0.00 0.00 0.00 50 1001.4
20260505204503 23 189 14.5 32.2 0.00 0.00 0.00 50 1001.2
20260505204003 23 182 9.7 32.2 0.00 0.00 0.00 50 1001.2
20260505203503 23 202 11.3 27.4 0.00 0.00 0.00 50 1001.3
20260505203003 24 209 9.7 25.7 0.00 0.00 0.00 50 1001.2
20260505202503 24 191 9.7 29.0 0.00 0.00 0.00 50 1001.2
20260505202004 24 177 11.3 38.6 0.00 0.00 0.00 50 1001.2
20260505201503 25 200 12.9 38.6 0.00 0.00 0.00 48 1001.2
20260505201003 25 191 11.3 32.2 0.00 0.00 0.00 47 1001.3
20260505200504 25 213 4.8 19.3 0.00 0.00 0.00 48 1001.5
20260505200003 25 208 9.7 22.5 0.00 0.00 0.00 47 1001.4
20260505195503 25 188 9.7 27.4 0.00 0.00 0.00 50 1001.5
20260505195003 25 224 12.9 37.0 0.00 0.00 0.00 47 1001.5
20260505194503 25 189 9.7 27.4 0.00 0.00 0.00 47 1001.5
20260505194004 25 192 11.3 33.8 0.00 0.00 0.00 47 1001.6
20260505193503 25 175 11.3 32.2 0.00 0.00 0.00 45 1001.7
20260505193003 26 197 9.7 32.2 0.00 0.00 0.00 44 1001.7
20260505192503 26 200 11.3 35.4 0.00 0.00 0.00 45 1001.7
20260505192003 26 181 9.7 29.0 0.00 0.00 0.00 45 1001.9
20260505191503 26 203 4.8 27.4 0.00 0.00 0.00 44 1001.9
20260505191003 26 168 9.7 32.2 0.00 0.00 0.00 45 1001.9
20260505190503 26 181 11.3 29.0 0.00 0.00 0.00 44 1001.9
20260505190004 26 197 12.9 32.2 0.00 0.00 0.00 46 1002.0
20260505185503 26 175 3.2 16.1 0.00 0.00 0.00 45 1002.0
20260505184503 26 156 9.7 32.2 0.00 0.00 0.00 45 1002.1
20260505183503 26 157 3.2 20.9 0.00 0.00 0.00 44 1002.1
20260505183004 26 170 4.8 20.9 0.00 0.00 0.00 43 1002.2
20260505182503 26 169 4.8 19.3 0.00 0.00 0.00 45 1002.2
20260505182003 26 141 3.2 22.5 0.00 0.00 0.00 45 1002.1
20260505181503 26 189 1.6 19.3 0.00 0.00 0.00 45 1002.3
20260505181003 26 182 3.2 16.1 0.00 0.00 0.00 44 1002.3
20260505180504 26 193 4.8 24.1 0.00 0.00 0.00 46 1002.5
20260505180003 26 179 9.7 27.4 0.00 0.00 0.00 47 1002.6
20260505175503 26 186 4.8 25.7 0.00 0.00 0.00 46 1002.7
20260505175003 25 176 11.3 25.7 0.00 0.00 0.00 47 1002.8
20260505174503 25 177 14.5 32.2 0.00 0.00 0.00 46 1002.9
20260505174003 25 190 6.4 24.1 0.00 0.00 0.00 45 1002.9
20260505173003 25 236 9.7 24.1 0.00 0.00 0.00 45 1003.1
20260505172003 26 184 8.0 29.0 0.00 0.00 0.00 45 1003.3
20260505171504 25 187 6.4 20.9 0.00 0.00 0.00 45 1003.3
20260505170504 25 192 8.0 20.9 0.00 0.00 0.00 46 1003.4
20260505170003 25 178 6.4 20.9 0.00 0.00 0.00 45 1003.4
20260505165504 25 195 3.2 16.1 0.00 0.00 0.00 44 1003.4
20260505165003 25 211 6.4 24.1 0.00 0.00 0.00 44 1003.6
20260505164503 25 195 8.0 32.2 0.00 0.00 0.00 46 1003.4
20260505164003 25 203 11.3 27.4 0.00 0.00 0.00 47 1003.7
20260505163004 25 201 8.0 24.1 0.00 0.03 0.00 47 1004.0
20260505162503 25 175 4.8 20.9 0.00 0.05 0.00 46 1003.9
20260505162003 24 201 4.8 29.0 0.00 0.05 0.00 47 1004.1
20260505161503 24 203 12.9 29.0 0.00 0.05 0.00 45 1004.2
20260505161004 23 211 11.3 24.1 0.00 0.05 0.00 46 1004.4
20260505160503 23 196 3.2 20.9 0.00 0.05 0.00 48 1004.4
20260505153003 22 221 4.8 27.4 0.00 0.05 0.00 48 1005.3
20260505152004 22 217 4.8 19.3 0.00 0.05 0.00 47 1005.3
20260505151503 23 221 6.4 16.1 0.00 0.05 0.00 46 1005.3
20260505151003 22 189 6.4 16.1 0.00 0.05 0.00 49 1005.4
20260505150504 22 214 4.8 19.3 0.00 0.05 0.00 50 1005.4
20260505140503 19 209 3.2 11.3 0.00 0.05 0.00 57 1005.5
20260505125004 15 212 0.0 1.6 0.00 0.05 0.00 69 1006.0
20260505124503 15 232 1.6 11.3 0.00 0.05 0.00 68 1006.0
20260505124004 14 188 0.0 9.7 0.00 0.05 0.00 71 1006.1
20260505123503 14 225 1.6 12.9 0.00 0.05 0.00 70 1006.2
20260505123004 13 205 1.6 11.3 0.00 0.05 0.00 72 1006.2
20260505122504 13 203 1.6 8.0 0.00 0.05 0.00 69 1006.1
20260505122003 13 223 0.0 4.8 0.00 0.05 0.00 71 1006.2
20260505121503 13 186 1.6 11.3 0.00 0.05 0.00 72 1006.3
20260505121003 12 156 0.0 11.3 0.00 0.05 0.00 73 1006.3
20260505120504 12 211 1.6 4.8 0.00 0.05 0.00 73 1006.5
20260505120004 12 211 0.0 4.8 0.00 0.05 0.00 74 1006.5
20260505115505 12 211 0.0 0.0 0.00 0.05 0.00 74 1006.5
20260505115003 12 211 1.6 4.8 0.00 0.05 0.00 72 1006.5
20260505114503 12 211 0.0 3.2 0.00 0.05 0.00 74 1006.5
20260505114004 12 223 0.0 4.8 0.00 0.05 0.00 74 1006.4
20260505113503 12 208 0.0 11.3 0.00 0.05 0.00 75 1006.5
20260505112503 11 209 0.0 4.8 0.00 0.05 0.00 76 1006.4
20260505112003 11 269 0.0 0.0 0.00 0.05 0.00 76 1006.4
20260505111504 11 269 0.0 0.0 0.00 0.05 0.00 76 1006.5
20260505111004 11 269 0.0 0.0 0.00 0.05 0.00 79 1006.5
20260505110503 11 269 0.0 0.0 0.00 0.05 0.00 78 1006.4
20260505102004 8 269 0.0 0.0 0.00 0.05 0.00 90 1006.2
20260505101504 7 269 0.0 0.0 0.00 0.05 0.00 91 1006.3
20260505101003 7 269 0.0 0.0 0.00 0.05 0.00 91 1006.3
20260505100504 7 269 0.0 0.0 0.00 0.05 0.00 91 1006.3
20260505095504 7 269 0.0 0.0 0.00 0.05 0.00 91 1006.2
20260505095003 7 269 0.0 0.0 0.00 0.05 0.00 90 1006.2
20260505094503 7 269 0.0 0.0 0.00 0.05 0.00 90 1006.2
20260505094004 7 269 0.0 0.0 0.00 0.05 0.00 90 1006.2
20260505093504 7 269 0.0 0.0 0.00 0.05 0.00 90 1006.1
20260505093004 7 269 0.0 0.0 0.00 0.05 0.00 89 1006.1
20260505092504 7 269 0.0 0.0 0.00 0.05 0.00 89 1006.1
20260505092004 7 269 0.0 1.6 0.00 0.05 0.00 89 1006.1
20260505091504 7 269 0.0 0.0 0.00 0.05 0.00 89 1006.1
20260505091004 7 269 0.0 0.0 0.00 0.05 0.00 89 1006.1
20260505090504 7 269 0.0 1.6 0.00 0.05 0.00 88 1006.2
20260505090004 7 269 0.0 0.0 0.00 0.05 0.00 89 1006.2
20260505085504 7 269 0.0 0.0 0.00 0.05 0.00 87 1006.3
20260505084503 7 269 0.0 0.0 0.00 0.05 0.00 87 1006.3
20260505084004 7 269 0.0 0.0 0.00 0.05 0.00 87 1006.3
20260505083504 7 269 0.0 0.0 0.00 0.05 0.00 86 1006.4
20260505083004 7 269 0.0 0.0 0.00 0.05 0.00 85 1006.4
20260505082503 7 269 0.0 0.0 0.00 0.05 0.00 85 1006.4
20260505082004 7 269 0.0 0.0 0.00 0.05 0.00 84 1006.5
20260505081504 8 269 0.0 0.0 0.00 0.05 0.00 83 1006.5
20260505081004 8 269 0.0 0.0 0.00 0.05 0.00 83 1006.6
20260505080504 8 269 0.0 0.0 0.00 0.05 0.00 82 1006.6
20260505075504 8 268 0.0 0.0 0.00 0.05 0.00 80 1006.6
20260505075004 8 268 1.6 8.0 0.00 0.05 0.00 80 1006.6
20260505074504 8 268 0.0 1.6 0.00 0.05 0.00 78 1006.6
20260505074004 9 267 0.0 0.0 0.00 0.05 0.00 77 1006.6
20260505073504 10 267 0.0 8.0 0.00 0.05 0.00 76 1006.6
20260505073004 10 232 0.0 0.0 0.00 0.05 0.00 74 1006.6
20260505072504 10 232 0.0 1.6 0.00 0.05 0.00 73 1006.5
20260505072004 11 232 0.0 3.2 0.00 0.05 0.00 70 1006.4
20260505071504 11 232 0.0 11.3 0.00 0.05 0.00 69 1006.5
20260505070004 13 212 1.6 4.8 0.00 0.05 0.00 60 1006.4
20260505065504 13 242 1.6 11.3 0.00 0.05 0.00 61 1006.5
20260505065004 13 219 1.6 22.5 0.00 0.05 0.00 61 1006.4
20260505064504 13 244 3.2 19.3 0.00 0.05 0.00 62 1006.3
20260505064004 12 223 8.0 22.5 0.00 0.05 0.00 64 1006.3
20260505063504 12 225 3.2 20.9 0.00 0.05 0.00 64 1006.3
20260505063004 12 228 9.7 19.3 0.00 0.05 0.00 65 1006.3
20260505062504 12 227 9.7 22.5 0.00 0.05 0.00 67 1006.2
20260505062004 12 228 11.3 32.2 0.00 0.05 0.00 66 1006.2
20260505061504 12 226 4.8 19.3 0.00 0.05 0.00 68 1006.4
20260505061004 11 227 9.7 22.5 0.00 0.05 0.00 71 1006.4
20260505060504 10 222 9.7 20.9 0.00 0.05 0.00 76 1006.5